Weather reports worldwide

Advertisment
Catania/Sigonella, Italy (16459): temperature & dewpoint: 17.07.2019 22:00:00 - 23.07.2019 22:00:00 (CEST)Catania/Sigonella, Italy (16459): wind speed: 17.07.2019 22:00:00 - 23.07.2019 22:00:00 (CEST)Catania/Sigonella, Italy (16459): wind direction: 17.07.2019 22:00:00 - 23.07.2019 22:00:00 (CEST)Catania/Sigonella, Italy (16459): reduced air pressure: 17.07.2019 22:00:00 - 23.07.2019 22:00:00 (CEST)Catania/Sigonella, Italy (16459): visibility: 17.07.2019 22:00:00 - 23.07.2019 22:00:00 (CEST)
Date & Time tt [°C] td [°C] ff [km/h] ff [kn] dd ppp [hPa] vv [km]
23.07.2019 22:00:00 26,0 23,0 4 2 E - 10
23.07.2019 21:00:00 27,0 22,0 11 6 ENE - 10
23.07.2019 20:00:00 27,2 18,8 16 9 NE 1015,3 10
23.07.2019 19:00:00 29,0 19,0 18 10 ENE - 10
23.07.2019 18:00:00 30,0 19,0 22 12 E - 10
23.07.2019 17:00:00 30,2 20,2 26 14 E 1015,5 10
23.07.2019 16:00:00 29,0 20,0 26 14 E - 10
23.07.2019 15:00:00 30,0 21,0 31 17 E - 10
23.07.2019 14:00:00 32,4 21,0 28 15 E 1015,6 10
23.07.2019 13:00:00 33,0 18,0 26 14 E - 10
23.07.2019 12:00:00 33,0 17,0 21 11 E - 10
23.07.2019 11:00:00 31,6 14,7 5 3 SSE 1016,7 10
23.07.2019 10:00:00 28,0 17,0 5 3 ESE - 10
23.07.2019 09:00:00 26,0 17,0 2 1 W - 10
23.07.2019 08:00:00 21,8 19,0 4 2 WSW 1017,6 20
23.07.2019 07:00:00 19,0 17,0 4 2 WSW - 10
23.07.2019 06:00:00 20,0 18,0 9 5 W - 10
23.07.2019 05:00:00 20,0 19,0 5 3 W 1017,3 20
23.07.2019 04:00:00 22,0 21,0 8 4 SW - 10
23.07.2019 03:00:00 23,0 18,0 9 5 WNW - 10
23.07.2019 02:00:00 22,2 19,6 13 7 W 1018,2 20
23.07.2019 01:00:00 23,0 21,0 11 6 W - 10
23.07.2019 00:00:00 23,0 22,0 8 4 WNW - 10
22.07.2019 23:00:00 24,6 22,9 5 3 WSW 1018,7 20
22.07.2019 22:00:00 26,0 21,0 8 4 ENE - 10
22.07.2019 21:00:00 27,0 19,0 11 6 NE - 10
22.07.2019 20:00:00 28,0 17,5 15 8 E 1017,9 16
22.07.2019 19:00:00 29,0 19,0 18 10 E - 10
22.07.2019 18:00:00 30,0 19,0 22 12 E - 10
22.07.2019 17:00:00 30,8 16,0 26 14 E 1018,3 16
22.07.2019 16:00:00 31,0 16,0 26 14 ENE - 10
22.07.2019 15:00:00 32,0 18,0 26 14 E - 10
22.07.2019 14:00:00 31,8 20,7 26 14 E 1019,5 16
22.07.2019 13:00:00 31,0 20,0 18 10 E - 10
22.07.2019 12:00:00 31,0 20,0 21 11 E - 10
22.07.2019 11:00:00 31,2 19,9 16 9 E 1020,4 16
22.07.2019 10:00:00 29,0 16,0 8 4 E - 10
22.07.2019 09:00:00 27,0 19,0 4 2 NW - 10
22.07.2019 08:00:00 23,2 17,9 4 2 WNW 1020,3 15
22.07.2019 07:00:00 20,0 17,0 5 3 SW - 10
22.07.2019 06:00:00 20,0 18,0 8 4 WSW - 10
22.07.2019 05:00:00 22,0 15,6 8 4 WSW 1020,1 10
22.07.2019 04:00:00 21,0 16,0 11 6 WNW - 10
22.07.2019 03:00:00 22,0 16,0 11 6 WNW - 10
22.07.2019 02:00:00 21,0 17,4 8 4 W 1021,2 10
22.07.2019 01:00:00 21,0 18,0 5 3 WSW - 10
22.07.2019 00:00:00 23,0 19,0 4 2 WNW - 10
21.07.2019 23:00:00 23,2 20,0 5 3 WSW 1020,4 10
21.07.2019 22:00:00 25,0 21,0 8 4 NE - 10
21.07.2019 21:00:00 26,0 21,0 18 10 NE - 10
21.07.2019 20:00:00 29,0 19,4 18 10 ENE 1019,3 15
21.07.2019 19:00:00 30,0 15,0 22 12 ENE - 10
21.07.2019 18:00:00 32,0 5,0 22 12 ENE - 10
21.07.2019 17:00:00 33,2 6,5 21 11 E 1019,3 15
21.07.2019 16:00:00 33,0 8,0 18 10 ESE - 10
21.07.2019 15:00:00 33,0 9,0 18 10 E - 10
21.07.2019 14:00:00 32,2 8,5 21 11 E 1020,2 15
21.07.2019 13:00:00 32,0 8,0 15 8 E - 10
21.07.2019 12:00:00 31,0 10,0 13 7 E - 10
21.07.2019 11:00:00 29,4 13,6 8 4 E 1020,4 15
21.07.2019 10:00:00 27,0 16,0 4 2 WSW - 10
21.07.2019 09:00:00 25,0 17,0 8 4 W - 10
21.07.2019 08:00:00 22,0 17,2 11 6 WNW 1020,5 15
21.07.2019 07:00:00 19,0 18,0 8 4 WSW - 10
21.07.2019 06:00:00 20,0 19,0 5 3 NW - 10
21.07.2019 05:00:00 19,8 17,9 5 3 NNW 1019,8 13
21.07.2019 04:00:00 22,0 17,0 9 5 WSW - 10
21.07.2019 03:00:00 22,0 16,0 13 7 W - 10
21.07.2019 02:00:00 21,4 17,4 11 6 W 1020,4 13
21.07.2019 01:00:00 23,0 20,0 5 3 W - 10
21.07.2019 00:00:00 23,0 22,0 4 2 NW - 10
20.07.2019 23:00:00 24,0 21,9 9 5 ENE 1020,2 13
20.07.2019 22:00:00 25,0 23,0 11 6 ENE - 10
20.07.2019 21:00:00 25,0 23,0 15 8 ENE - 10
20.07.2019 20:00:00 25,4 20,7 22 12 E 1018,9 12
20.07.2019 19:00:00 26,0 17,0 24 13 E - 10
20.07.2019 18:00:00 28,0 17,0 26 14 E - 10
20.07.2019 17:00:00 27,8 17,9 29 16 E 1019,1 12
20.07.2019 16:00:00 28,0 19,0 29 16 E - 10
20.07.2019 15:00:00 28,0 19,0 29 16 E - 10
20.07.2019 14:00:00 27,8 20,1 29 16 E 1019,5 12
20.07.2019 13:00:00 27,0 20,0 22 12 ENE - 10
20.07.2019 12:00:00 26,0 18,0 21 11 E - 10
20.07.2019 11:00:00 27,8 19,3 16 9 E 1018,9 12
20.07.2019 10:00:00 27,0 17,0 8 4 E - 10
20.07.2019 09:00:00 24,0 18,0 5 3 NW - 10
20.07.2019 08:00:00 23,2 17,7 9 5 NW 1018,4 10
20.07.2019 07:00:00 21,0 18,0 5 3 W - 10
20.07.2019 06:00:00 21,0 20,0 13 7 W - 10
20.07.2019 05:00:00 20,2 20,2 13 7 W 1017,8 10
20.07.2019 04:00:00 20,0 20,0 11 6 W - 10
20.07.2019 03:00:00 20,0 20,0 13 7 W - 10
20.07.2019 02:00:00 21,4 21,4 11 6 W 1017,7 10
20.07.2019 01:00:00 21,0 21,0 5 3 WNW - 10
20.07.2019 00:00:00 22,0 22,0 11 6 WSW - 10
19.07.2019 23:00:00 21,8 21,8 5 3 ESE 1017,4 10
19.07.2019 22:00:00 24,0 22,0 5 3 E - 10
19.07.2019 21:00:00 24,0 22,0 13 7 ENE - 10
19.07.2019 20:00:00 25,8 21,0 21 11 ENE 1016,0 16
19.07.2019 19:00:00 27,0 20,0 21 11 E - 10
19.07.2019 18:00:00 27,0 20,0 24 13 E - 10
19.07.2019 17:00:00 27,4 19,0 28 15 E 1015,7 18
19.07.2019 16:00:00 28,0 14,0 26 14 E - 10
19.07.2019 15:00:00 29,0 14,0 22 12 ENE - 10
19.07.2019 14:00:00 28,8 13,5 22 12 E 1016,3 18
19.07.2019 13:00:00 28,0 14,0 18 10 E - 10
19.07.2019 12:00:00 28,0 13,0 16 9 E - 10
19.07.2019 11:00:00 28,0 12,4 13 7 E 1016,4 18
19.07.2019 10:00:00 26,0 15,0 5 3 E - 10
19.07.2019 09:00:00 25,0 14,0 8 4 W - 10
19.07.2019 08:00:00 20,8 15,1 5 3 WNW 1016,0 15
19.07.2019 07:00:00 19,0 15,0 9 5 W - 10
19.07.2019 06:00:00 19,0 16,0 8 4 WNW - 10
19.07.2019 05:00:00 19,0 15,9 11 6 W 1015,2 10
19.07.2019 04:00:00 19,0 16,0 9 5 WNW - 10
19.07.2019 03:00:00 21,0 18,0 8 4 SW - 10
19.07.2019 02:00:00 20,8 18,7 11 6 W 1015,2 10
19.07.2019 01:00:00 20,0 19,0 9 5 W - 10
19.07.2019 00:00:00 22,0 20,0 4 2 W - 10
18.07.2019 23:00:00 23,0 21,8 5 3 NE 1014,9 10
18.07.2019 22:00:00 23,0 21,0 5 3 ESE - 10
18.07.2019 21:00:00 24,0 20,0 9 5 E - 10
18.07.2019 20:00:00 24,2 17,7 15 8 E 1013,5 10
18.07.2019 19:00:00 27,0 15,0 24 13 E - 10
18.07.2019 18:00:00 26,0 14,0 28 15 E - 10
18.07.2019 17:00:00 26,8 14,9 31 17 N 1012,7 10
18.07.2019 16:00:00 27,0 10,0 29 16 E - 10
18.07.2019 15:00:00 28,0 12,0 35 19 E - 10
18.07.2019 14:00:00 29,8 11,4 28 15 E 1013,3 10
18.07.2019 13:00:00 28,0 10,0 11 6 E - 10
18.07.2019 12:00:00 27,0 10,0 11 6 SW - 10
18.07.2019 11:00:00 27,8 14,8 4 2 E 1013,4 10
18.07.2019 10:00:00 26,0 18,0 4 2 N - 10
18.07.2019 09:00:00 24,0 18,0 5 3 WNW - 10
18.07.2019 08:00:00 20,2 15,4 11 6 WSW 1013,1 15
18.07.2019 07:00:00 20,0 16,0 13 7 W - 10
18.07.2019 06:00:00 18,0 17,0 13 7 W - 10
18.07.2019 05:00:00 19,0 18,2 9 5 SW 1012,9 15
18.07.2019 04:00:00 19,0 18,0 9 5 W - 10
18.07.2019 03:00:00 20,0 20,0 9 5 WSW - 10
18.07.2019 02:00:00 22,0 21,2 5 3 W 1013,4 15
18.07.2019 01:00:00 22,0 21,0 5 3 NW - 10
18.07.2019 00:00:00 22,0 20,0 2 1 E - 10
17.07.2019 23:00:00 23,0 19,4 8 4 E 1012,9 15
17.07.2019 22:00:00 24,0 18,0 11 6 ESE - 10

tt = temperature
td = dewpoint
ff = wind speed
dd = wind direction
ppp = reduced air pressure
vv = visibility

Next stations